FW9989 Weather Reports


time (UTC)temp
C
wind
direction
speed
KPH
gust
KPH
rain 1hr
cm
rain 24hr
cm
rain mn
cm
humidity
%
barometer
mb
20260510162237 25 195 6.4 11.3 0.00 0.00 0.00 46 1016.6
20260510161733 25 190 4.8 8.0 0.00 0.00 0.00 46 1016.9
20260510161229 25 194 11.3 12.9 0.00 0.00 0.00 47 1016.6
20260510160726 25 220 8.0 11.3 0.00 0.00 0.00 47 1016.6
20260510160226 25 218 8.0 12.9 0.00 0.00 0.00 48 1016.9
20260510155723 25 214 9.7 11.3 0.00 0.00 0.00 48 1016.9
20260510155218 25 209 8.0 11.3 0.00 0.00 0.00 50 1016.9
20260510154715 25 203 4.8 4.8 0.00 0.00 0.00 53 1016.9
20260510154211 25 232 1.6 4.8 0.00 0.00 0.00 53 1016.9
20260510153705 25 190 4.8 8.0 0.00 0.00 0.00 54 1016.6
20260510153202 25 189 1.6 3.2 0.00 0.00 0.00 56 1016.9
20260510152659 24 207 0.0 4.8 0.00 0.00 0.00 56 1016.9
20260510152155 24 190 1.6 4.8 0.00 0.00 0.00 58 1016.9
20260510151651 23 218 0.0 1.6 0.00 0.00 0.00 59 1017.3
20260510151150 23 219 0.0 1.6 0.00 0.00 0.00 60 1016.9
20260510150646 23 233 1.6 3.2 0.00 0.00 0.00 61 1017.3
20260510150141 23 203 1.6 1.6 0.00 0.00 0.00 62 1016.9
20260510145638 23 219 3.2 4.8 0.00 0.00 0.00 63 1017.3
20260510145134 23 193 3.2 4.8 0.00 0.00 0.00 64 1017.3
20260510144630 22 183 1.6 1.6 0.00 0.00 0.00 66 1017.3
20260510144126 22 209 6.4 8.0 0.00 0.00 0.00 69 1017.3
20260510143622 22 222 1.6 3.2 0.00 0.00 0.00 70 1017.3
20260510143119 22 221 0.0 3.2 0.00 0.00 0.00 71 1016.9
20260510142615 21 232 6.4 8.0 0.00 0.00 0.00 72 1016.9
20260510142112 22 194 3.2 4.8 0.00 0.00 0.00 72 1016.9
20260510141609 21 225 4.8 8.0 0.00 0.00 0.00 74 1016.9
20260510141107 21 221 0.0 4.8 0.00 0.00 0.00 75 1016.9
20260510140603 21 199 0.0 1.6 0.00 0.00 0.00 75 1016.9
20260510135558 21 217 6.4 8.0 0.00 0.00 0.00 76 1016.9
20260510135055 20 204 1.6 3.2 0.00 0.00 0.00 75 1016.9
20260510134552 20 199 1.6 3.2 0.00 0.00 0.00 76 1016.9
20260510134049 20 322 1.6 3.2 0.00 0.00 0.00 76 1016.9
20260510133544 20 203 0.0 8.0 0.00 0.00 0.00 77 1016.6
20260510133041 20 209 0.0 9.7 0.00 0.00 0.00 77 1016.9
20260510132538 20 206 0.0 3.2 0.00 0.00 0.00 77 1017.3
20260510132034 20 179 0.0 8.0 0.00 0.00 0.00 78 1016.9
20260510131532 20 216 6.4 11.3 0.00 0.00 0.00 80 1016.9
20260510131029 20 207 4.8 4.8 0.00 0.00 0.00 83 1016.9
20260510130525 19 305 3.2 4.8 0.00 0.00 0.00 83 1016.6
20260510130023 18 349 3.2 9.7 0.00 0.00 0.00 87 1016.9
20260510125519 18 327 3.2 12.9 0.00 0.00 0.00 90 1016.6
20260510125016 17 251 0.0 0.0 0.00 0.00 0.00 97 1016.6
20260510124512 17 239 0.0 0.0 0.00 0.00 0.00 99 1016.6
20260510124009 17 207 0.0 1.6 0.00 0.00 0.00 99 1016.6
20260510123504 16 193 0.0 0.0 0.00 0.00 0.00 99 1016.6
20260510123001 16 203 1.6 3.2 0.00 0.00 0.00 99 1016.6
20260510122456 16 201 1.6 4.8 0.00 0.00 0.00 99 1016.2
20260510121953 16 174 0.0 1.6 0.00 0.00 0.00 99 1016.6
20260510121450 16 138 0.0 0.0 0.00 0.00 0.00 99 1016.2
20260510120947 15 141 0.0 0.0 0.00 0.00 0.00 99 1016.6
20260510120445 15 123 0.0 0.0 0.00 0.00 0.00 99 1016.2
20260510115940 15 122 0.0 0.0 0.00 0.00 0.00 99 1016.2
20260510115437 15 90 0.0 0.0 0.00 0.00 0.00 99 1016.6
20260510114933 15 120 0.0 0.0 0.00 0.00 0.00 99 1016.2
20260510114430 15 120 0.0 0.0 0.00 0.00 0.00 99 1016.2
20260510113925 15 120 0.0 0.0 0.00 0.00 0.00 99 1016.2
20260510113421 14 120 0.0 0.0 0.00 0.00 0.00 99 1016.2
20260510112919 14 120 0.0 0.0 0.00 0.00 0.00 99 1015.9
20260510112417 14 120 0.0 0.0 0.00 0.00 0.00 99 1015.9
20260510111912 14 120 0.0 0.0 0.00 0.00 0.00 99 1015.9
20260510111408 14 120 0.0 0.0 0.00 0.00 0.00 99 1015.6
20260510110904 14 120 0.0 0.0 0.00 0.00 0.00 99 1015.6
20260510110401 14 123 0.0 0.0 0.00 0.00 0.00 99 1015.2
20260510105857 14 123 0.0 0.0 0.00 0.00 0.00 99 1015.2
20260510105356 14 123 0.0 0.0 0.00 0.00 0.00 99 1014.9
20260510104853 14 123 0.0 0.0 0.00 0.00 0.00 99 1015.2
20260510104350 14 123 0.0 0.0 0.00 0.00 0.00 99 1014.9
20260510103846 14 123 0.0 0.0 0.00 0.00 0.00 99 1014.9
20260510103343 14 123 0.0 0.0 0.00 0.00 0.00 99 1015.2
20260510102839 14 123 0.0 0.0 0.00 0.00 0.00 99 1015.2
20260510102335 14 123 0.0 0.0 0.00 0.00 0.00 99 1014.9
20260510101832 14 123 0.0 0.0 0.00 0.00 0.00 99 1014.9
20260510101330 15 123 0.0 0.0 0.00 0.00 0.00 99 1014.9
20260510100826 15 123 0.0 0.0 0.00 0.00 0.00 99 1014.6
20260510100324 15 123 0.0 0.0 0.00 0.00 0.00 99 1014.6
20260510095820 14 122 0.0 0.0 0.00 0.00 0.00 99 1014.6
20260510095315 15 123 0.0 0.0 0.00 0.00 0.00 99 1014.6
20260510094815 15 122 0.0 0.0 0.00 0.00 0.00 99 1014.9
20260510094310 15 122 0.0 0.0 0.00 0.00 0.00 99 1014.6
20260510093807 15 122 0.0 0.0 0.00 0.00 0.00 99 1014.6
20260510093303 15 122 0.0 0.0 0.00 0.00 0.00 99 1014.6
20260510092759 15 122 0.0 0.0 0.00 0.00 0.00 99 1014.2
20260510092255 15 122 0.0 0.0 0.00 0.00 0.00 99 1014.2
20260510091751 15 122 0.0 0.0 0.00 0.00 0.00 99 1014.2
20260510091248 15 122 0.0 0.0 0.00 0.00 0.00 99 1014.2
20260510090745 15 136 0.0 0.0 0.00 0.00 0.00 99 1014.2
20260510090242 15 136 0.0 0.0 0.00 0.00 0.00 99 1014.2
20260510085737 15 136 0.0 0.0 0.00 0.00 0.00 99 1014.2
20260510085232 15 136 0.0 0.0 0.00 0.00 0.00 99 1014.2
20260510084728 15 136 0.0 0.0 0.00 0.00 0.00 99 1013.9
20260510084225 15 136 0.0 0.0 0.00 0.00 0.00 99 1014.2
20260510083721 15 137 0.0 0.0 0.00 0.00 0.00 99 1013.9
20260510083219 15 136 0.0 0.0 0.00 0.00 0.00 99 1013.9
20260510082714 15 137 0.0 0.0 0.00 0.00 0.00 99 1014.2
20260510082211 15 137 0.0 0.0 0.00 0.00 0.00 99 1013.9
20260510081710 15 137 0.0 0.0 0.00 0.00 0.00 99 1013.9
20260510081207 15 137 0.0 0.0 0.00 0.00 0.00 99 1013.9
20260510080701 15 137 0.0 0.0 0.00 0.00 0.00 99 1013.9
20260510080158 15 136 0.0 0.0 0.00 0.00 0.00 99 1013.5
20260510075654 15 137 0.0 0.0 0.00 0.00 0.00 99 1013.5
20260510075152 15 137 0.0 0.0 0.00 0.00 0.00 99 1013.5
20260510074649 15 136 0.0 0.0 0.00 0.00 0.00 99 1013.5
20260510074144 15 136 0.0 0.0 0.00 0.00 0.00 99 1013.5
20260510073641 15 136 0.0 0.0 0.00 0.00 0.00 99 1013.2
20260510073137 15 136 0.0 0.0 0.00 0.00 0.00 99 1013.5
20260510072634 16 136 0.0 0.0 0.00 0.00 0.00 99 1013.5
20260510072130 16 136 0.0 0.0 0.00 0.00 0.00 99 1013.2
20260510071626 16 136 0.0 0.0 0.00 0.00 0.00 99 1013.5
20260510071124 16 136 0.0 0.0 0.00 0.00 0.00 99 1013.5
20260510070621 16 142 0.0 0.0 0.00 0.00 0.00 99 1013.9
20260510070119 16 145 0.0 0.0 0.00 0.00 0.00 99 1013.5
20260510065614 16 144 0.0 0.0 0.00 0.00 0.00 99 1013.5
20260510065110 16 145 0.0 0.0 0.00 0.00 0.00 99 1013.5
20260510064606 16 141 0.0 0.0 0.00 0.00 0.00 99 1013.5
20260510064103 15 141 0.0 0.0 0.00 0.00 0.00 99 1013.2
20260510063555 15 141 0.0 0.0 0.00 0.00 0.00 99 1013.2
20260510063052 15 140 0.0 0.0 0.00 0.00 0.00 99 1013.5
20260510062548 15 137 0.0 0.0 0.00 0.00 0.00 99 1013.5
20260510062043 15 64 0.0 0.0 0.00 0.00 0.00 99 1013.5
20260510061540 15 99 0.0 0.0 0.00 0.00 0.00 99 1013.5
20260510061037 16 146 0.0 0.0 0.00 0.00 0.00 99 1013.5
20260510060533 16 146 0.0 0.0 0.00 0.00 0.00 99 1013.5
20260510060029 16 148 0.0 0.0 0.00 0.00 0.00 99 1013.5
20260510055525 16 148 0.0 0.0 0.00 0.00 0.00 99 1013.5
20260510055024 16 149 0.0 0.0 0.00 0.00 0.00 99 1013.5
20260510054519 15 148 0.0 0.0 0.00 0.00 0.00 99 1013.5
20260510054014 16 148 0.0 0.0 0.00 0.00 0.00 99 1013.5
20260510053509 16 148 0.0 0.0 0.00 0.00 0.00 99 1013.9
20260510053007 16 149 0.0 0.0 0.00 0.00 0.00 99 1013.9
20260510052503 16 149 0.0 0.0 0.00 0.00 0.00 99 1014.2
20260510051959 16 148 0.0 0.0 0.00 0.00 0.00 98 1013.9
20260510051454 16 131 0.0 0.0 0.00 0.00 0.00 98 1013.9
20260510050951 16 154 0.0 0.0 0.00 0.00 0.00 98 1013.9
20260510050448 16 167 0.0 0.0 0.00 0.00 0.00 98 1013.9
20260510045945 16 167 0.0 0.0 0.00 0.00 0.00 98 1013.9
20260510045442 16 167 0.0 0.0 0.00 0.00 0.00 98 1014.2
20260510044939 16 167 0.0 0.0 0.00 0.00 0.00 98 1013.9
20260510044436 16 167 0.0 0.0 0.00 0.00 0.00 98 1013.9
20260510043932 16 167 0.0 0.0 0.00 0.00 0.00 97 1013.9
20260510043428 16 169 0.0 0.0 0.00 0.00 0.00 97 1014.2
20260510042927 16 169 0.0 0.0 0.00 0.00 0.00 97 1013.9
20260510042423 16 169 0.0 0.0 0.00 0.00 0.00 97 1013.9
20260510041918 16 169 0.0 0.0 0.00 0.00 0.00 97 1013.9
20260510041416 16 169 0.0 0.0 0.00 0.00 0.00 97 1013.9
20260510040914 16 169 0.0 0.0 0.00 0.00 0.00 97 1013.9
20260510040410 16 169 0.0 0.0 0.00 0.00 0.00 96 1013.9
20260510035905 16 169 0.0 0.0 0.00 0.00 0.00 96 1013.9
20260510035402 16 169 0.0 0.0 0.00 0.00 0.00 96 1013.9
20260510034857 16 168 0.0 0.0 0.00 0.00 0.00 96 1013.9
20260510034356 16 169 0.0 0.0 0.00 0.00 0.00 95 1013.9
20260510033851 17 169 0.0 0.0 0.00 0.00 0.00 95 1013.9
20260510033348 17 169 0.0 0.0 0.00 0.00 0.00 95 1013.9
20260510032844 17 169 0.0 0.0 0.00 0.00 0.00 94 1013.5
20260510032341 17 169 0.0 0.0 0.00 0.00 0.00 94 1013.9
20260510031837 17 169 0.0 0.0 0.00 0.00 0.00 94 1013.5
20260510031333 17 169 0.0 0.0 0.00 0.00 0.00 93 1013.5
20260510030832 17 169 0.0 0.0 0.00 0.00 0.00 93 1013.2
20260510030329 17 169 0.0 0.0 0.00 0.00 0.00 93 1013.2
20260510025826 17 169 0.0 0.0 0.00 0.00 0.00 93 1013.5
20260510025324 17 169 0.0 0.0 0.00 0.00 0.00 92 1013.2
20260510024820 17 165 0.0 0.0 0.00 0.00 0.00 92 1013.5
20260510024318 17 188 0.0 0.0 0.00 0.00 0.00 91 1013.2
20260510023813 17 188 0.0 0.0 0.00 0.00 0.00 91 1013.2
20260510023310 18 188 0.0 0.0 0.00 0.00 0.00 91 1013.5
20260510022807 18 189 0.0 0.0 0.00 0.00 0.00 90 1013.2
20260510022307 18 189 0.0 0.0 0.00 0.00 0.00 90 1013.5
20260510021806 18 190 0.0 0.0 0.00 0.00 0.00 90 1013.5
20260510021304 18 190 0.0 0.0 0.00 0.00 0.00 89 1013.2
20260510020759 18 190 0.0 0.0 0.00 0.00 0.00 88 1013.2
20260510020254 18 190 0.0 0.0 0.00 0.00 0.00 88 1013.2
20260510015750 18 189 0.0 0.0 0.00 0.00 0.00 88 1013.2
20260510015247 18 190 0.0 0.0 0.00 0.00 0.00 87 1013.2
20260510014741 18 190 0.0 0.0 0.00 0.00 0.00 87 1012.9
20260510014239 19 197 0.0 0.0 0.00 0.00 0.00 86 1013.2
20260510013735 19 196 0.0 0.0 0.00 0.00 0.00 85 1012.9
20260510013231 20 206 0.0 0.0 0.00 0.00 0.00 83 1012.9
20260510012725 20 176 0.0 0.0 0.00 0.00 0.00 81 1012.5
20260510012221 20 204 0.0 1.6 0.00 0.00 0.00 80 1012.5
20260510011720 20 178 0.0 3.2 0.00 0.00 0.00 80 1012.5
20260510011216 20 190 0.0 1.6 0.00 0.00 0.00 80 1012.5
20260510010713 20 204 4.8 4.8 0.00 0.00 0.00 80 1012.5
20260510010210 20 194 0.0 3.2 0.00 0.00 0.00 79 1012.5
20260510005707 20 168 1.6 3.2 0.00 0.00 0.00 79 1012.5
20260510005203 20 198 1.6 4.8 0.00 0.00 0.00 78 1012.5
20260510004702 20 191 4.8 4.8 0.00 0.00 0.00 78 1012.9
20260510004159 21 169 0.0 4.8 0.00 0.00 0.00 78 1012.5
20260510003656 20 188 0.0 0.0 0.00 0.00 0.00 78 1012.2
20260510003151 21 182 1.6 1.6 0.00 0.00 0.00 78 1012.5
20260510002646 21 195 1.6 1.6 0.00 0.00 0.00 76 1012.2
20260510002143 21 203 0.0 3.2 0.00 0.00 0.00 75 1012.2
20260510001640 21 189 3.2 4.8 0.00 0.00 0.00 75 1012.2
20260510001139 21 197 4.8 4.8 0.00 0.00 0.00 74 1011.8
20260510000639 21 194 3.2 4.8 0.00 0.00 0.00 73 1012.2
20260510000137 22 165 1.6 4.8 0.00 0.00 0.00 73 1012.2
20260509235632 22 195 6.4 8.0 0.00 0.00 0.00 72 1011.8
20260509235129 22 181 3.2 9.7 0.00 0.00 0.00 71 1011.8
20260509234625 22 210 8.0 9.7 0.00 0.00 0.00 71 1011.8
20260509234123 22 188 6.4 14.5 0.00 0.00 0.00 70 1011.5
20260509233621 22 186 6.4 8.0 0.00 0.00 0.00 69 1011.5
20260509233118 22 165 3.2 8.0 0.00 0.00 0.00 69 1011.5
20260509232614 22 195 3.2 11.3 0.00 0.00 0.00 69 1011.5
20260509232111 22 199 6.4 9.7 0.00 0.00 0.00 68 1011.5
20260509231608 23 198 11.3 11.3 0.00 0.00 0.00 67 1011.5
20260509231106 23 201 8.0 9.7 0.00 0.00 0.00 67 1011.5
20260509230602 23 201 11.3 11.3 0.00 0.00 0.00 67 1011.2
20260509230059 23 189 3.2 9.7 0.00 0.00 0.00 66 1011.8
20260509225555 23 209 8.0 12.9 0.00 0.00 0.00 65 1011.5
20260509225050 23 206 4.8 8.0 0.00 0.00 0.00 64 1011.5
20260509224546 23 213 6.4 12.9 0.00 0.00 0.00 64 1011.5
20260509224043 23 182 6.4 8.0 0.00 0.00 0.00 63 1011.5
20260509223540 23 187 8.0 11.3 0.00 0.00 0.00 64 1011.5
20260509223038 23 199 11.3 16.1 0.00 0.00 0.00 63 1011.2
20260509222533 23 201 8.0 20.9 0.00 0.00 0.00 63 1011.5
20260509222035 23 181 11.3 20.9 0.00 0.00 0.00 63 1011.5
20260509221525 23 192 0.0 14.5 0.00 0.00 0.00 62 1011.2
20260509221022 23 193 8.0 14.5 0.00 0.00 0.00 62 1011.2
20260509220518 23 196 8.0 14.5 0.00 0.00 0.00 62 1011.2
20260509220014 23 196 12.9 17.7 0.00 0.00 0.00 62 1011.5
20260509215509 23 191 11.3 16.1 0.00 0.00 0.00 62 1011.5
20260509215007 23 201 11.3 20.9 0.00 0.00 0.00 62 1011.5
20260509214504 23 219 9.7 14.5 0.00 0.00 0.00 62 1011.5
20260509214001 23 230 12.9 14.5 0.00 0.00 0.00 62 1011.2
20260509213457 23 228 9.7 12.9 0.00 0.00 0.00 62 1011.2
20260509212954 23 223 11.3 16.1 0.00 0.00 0.00 61 1011.2
20260509212451 23 193 8.0 22.5 0.00 0.00 0.00 61 1011.2
20260509211948 23 195 6.4 11.3 0.00 0.00 0.00 61 1011.2
20260509211443 23 213 9.7 11.3 0.00 0.00 0.00 61 1011.2
20260509210940 23 216 6.4 9.7 0.00 0.00 0.00 61 1011.2
20260509210437 23 190 4.8 11.3 0.00 0.00 0.00 62 1011.2
20260509205932 23 205 4.8 11.3 0.00 0.00 0.00 61 1011.2
20260509205427 23 195 3.2 9.7 0.00 0.00 0.00 61 1011.2
20260509204923 23 110 8.0 20.9 0.00 0.00 0.00 61 1011.2
20260509204420 23 211 17.7 20.9 0.00 0.00 0.00 61 1011.2
20260509203917 23 195 11.3 14.5 0.00 0.00 0.00 60 1011.2
20260509203412 23 222 11.3 14.5 0.00 0.00 0.00 60 1011.2
20260509202910 23 209 9.7 11.3 0.00 0.00 0.00 60 1011.2
20260509202406 23 193 11.3 17.7 0.00 0.00 0.00 60 1011.2
20260509201901 23 199 9.7 17.7 0.00 0.00 0.00 61 1011.2
20260509201356 23 193 11.3 16.1 0.00 0.00 0.00 61 1011.2
20260509200854 23 193 4.8 16.1 0.00 0.00 0.00 62 1011.2
20260509200348 23 161 6.4 8.0 0.00 0.00 0.00 62 1011.5
20260509195846 23 201 9.7 14.5 0.00 0.00 0.00 63 1011.2
20260509195346 22 197 8.0 11.3 0.00 0.00 0.00 63 1011.2
20260509194845 22 198 3.2 8.0 0.00 0.00 0.00 64 1011.5
20260509194342 22 188 4.8 9.7 0.00 0.00 0.00 64 1011.5
20260509193838 22 230 4.8 9.7 0.00 0.00 0.00 63 1011.5
20260509193338 22 213 6.4 9.7 0.00 0.00 0.00 63 1011.5
20260509192834 22 191 6.4 11.3 0.00 0.00 0.00 63 1011.5
20260509192330 22 221 4.8 9.7 0.00 0.00 0.00 64 1011.8
20260509191826 22 198 6.4 9.7 0.00 0.00 0.00 63 1011.8
20260509191322 22 216 8.0 12.9 0.00 0.00 0.00 64 1012.2
20260509190818 22 194 9.7 14.5 0.00 0.00 0.00 62 1011.8
20260509190315 23 226 4.8 17.7 0.00 0.00 0.00 62 1012.2
20260509185813 22 173 4.8 9.7 0.00 0.00 0.00 62 1012.2
20260509185309 22 200 9.7 20.9 0.00 0.00 0.00 61 1012.2
20260509184806 22 195 8.0 16.1 0.00 0.00 0.00 62 1012.2
20260509184304 22 197 6.4 11.3 0.00 0.00 0.00 64 1011.8
20260509183800 22 228 8.0 11.3 0.00 0.00 0.00 62 1012.2
20260509183255 22 230 11.3 16.1 0.00 0.00 0.00 61 1012.2
20260509182751 22 221 14.5 17.7 0.00 0.00 0.00 62 1012.2
20260509182248 22 199 11.3 17.7 0.00 0.00 0.00 64 1012.2
20260509181745 22 211 16.1 20.9 0.00 0.00 0.00 64 1012.2
20260509181243 22 110 8.0 16.1 0.00 0.00 0.00 62 1012.5
20260509180740 22 214 8.0 12.9 0.00 0.00 0.00 62 1012.5
20260509180236 22 220 12.9 20.9 0.00 0.00 0.00 64 1012.9
20260509175732 22 235 8.0 14.5 0.00 0.00 0.00 62 1012.9
20260509175229 22 211 12.9 16.1 0.00 0.00 0.00 62 1012.9
20260509174725 22 213 11.3 17.7 0.00 0.00 0.00 61 1012.9
20260509174220 22 211 9.7 16.1 0.00 0.00 0.00 62 1012.5
20260509173717 22 209 6.4 12.9 0.00 0.00 0.00 63 1012.9
20260509173213 22 195 9.7 22.5 0.00 0.00 0.00 62 1012.9
20260509172709 22 233 11.3 16.1 0.00 0.00 0.00 63 1012.9
20260509172205 22 218 4.8 11.3 0.00 0.00 0.00 62 1013.2
20260509171701 21 214 12.9 17.7 0.00 0.00 0.00 62 1013.2
20260509171157 22 227 8.0 17.7 0.00 0.00 0.00 62 1013.5
20260509170654 22 203 12.9 14.5 0.00 0.00 0.00 62 1013.2
20260509170150 21 193 9.7 14.5 0.00 0.00 0.00 62 1013.2
20260509165648 22 237 14.5 16.1 0.00 0.00 0.00 61 1013.2
20260509165144 22 185 11.3 16.1 0.00 0.00 0.00 61 1013.2
20260509164640 22 203 8.0 12.9 0.00 0.00 0.00 59 1013.2
20260509164136 22 179 17.7 24.1 0.00 0.00 0.00 58 1013.2
20260509163634 22 202 11.3 20.9 0.00 0.00 0.00 59 1013.2
20260509163129 21 131 8.0 16.1 0.00 0.00 0.00 59 1013.2